CAPE
998 905 1157 962 824 799 868 869 950 844 961 1165 1140 1134 1249 1149 1023 933 876 818 561 566 756 678 731 683 494 408 413 426 429 265 111 23 2 3 3 0 0 0 0 0 0
1237 1143 999 1107 952 1019 990 1188 1358 1156 853 1028 737 681 573 476 317 234 201 234 123 208 522 788 505 672 720 618 433 377 342 398 391 253 71 1 1 4 0 0 0 0 0
1061 884 1069 782 1086 1205 1312 1168 783 854 476 602 302 120 263 27 28 8 0 0 0 0 2 54 286 316 190 41 16 7 13 39 88 181 353 169 29 0 0 0 0 0 0
1025 1345 1078 923 978 1018 801 389 0 0 0 0 0 0 0 0 0 0 0 0 0 0 0 0 12 4 12 19 48 24 43 46 18 25 16 30 204 65 3 0 0 0 0
1392 1123 750 653 490 29 0 0 0 0 0 0 0 0 0 0 0 0 0 0 0 0 0 0 0 0 0 0 0 0 2 8 0 7 11 8 19 11 7 8 2 0 0
1114 614 22 0 0 0 0 0 0 0 0 0 0 0 0 0 0 0 0 0 0 0 0 0 0 0 0 0 0 0 0 0 3 0 0 0 0 0 1 1 3 8 0
0 0 0 0 0 0 0 0 0 0 0 0 0 0 0 0 0 0 0 0 0 0 0 0 0 0 0 0 0 0 0 0 0 0 0 0 0 0 0 0 1 17 28
0 0 0 0 0 0 0 0 0 0 0 0 0 0 0 0 0 0 0 0 0 0 0 0 0 0 0 0 0 0 1 0 0 0 0 0 0 0 0 7 17 0 14
0 0 0 0 0 0 0 0 0 0 0 0 0 0 0 0 0 0 0 0 0 0 0 0 0 0 0 0 0 0 2 0 0 0 0 0 0 0 0 0 2 16 22
0 0 0 0 0 0 0 0 0 0 0 0 0 0 0 0 0 0 0 0 0 0 0 0 0 0 0 0 0 1 0 0 0 0 0 0 0 0 0 0 0 4 1
0 0 0 0 0 0 0 0 0 0 0 0 0 0 0 0 0 0 0 0 0 0 0 0 0 0 0 0 1 10 0 0 0 0 0 0 0 0 0 0 0 2 7
0 0 0 0 0 0 0 0 0 0 0 0 0 0 0 0 0 0 0 0 0 0 0 0 0 0 0 1 0 1 0 0 0 0 0 0 0 0 0 0 0 0 10
0 0 0 0 0 0 0 0 0 0 0 0 0 0 0 0 0 0 0 0 0 0 0 0 0 0 2 0 0 3 1 0 0 0 0 0 0 0 0 0 0 0 4
0 0 0 0 0 0 0 0 0 0 0 0 0 0 0 0 0 0 0 0 0 0 0 0 0 0 0 0 16 14 14 11 5 14 0 0 0 0 0 0 0 0 0
0 0 0 0 0 0 0 0 0 0 0 0 0 0 0 0 0 0 0 0 2 1 0 0 0 0 0 13 7 15 19 35 17 11 10 1 1 0 0 0 0 0 0
0 0 0 0 0 0 0 0 0 0 0 0 0 0 0 0 0 0 0 1 0 0 0 0 0 0 0 0 0 0 0 0 0 0 7 6 1 0 0 0 0 0 0
0 0 0 0 0 0 0 0 0 0 0 0 0 0 0 0 0 0 0 0 2 3 2 0 0 0 0 0 0 0 0 0 0 3 4 11 0 0 0 0 0 0 0
0 0 0 0 0 0 0 0 0 0 0 0 0 0 0 0 0 0 0 0 0 0 0 4 0 0 1 0 0 0 0 0 0 0 9 13 7 0 0 0 0 0 0
0 0 0 0 0 0 0 0 0 0 0 0 0 0 0 0 0 0 0 0 0 0 0 1 0 1 3 5 2 5 2 0 3 12 0 0 7 0 0 0 0 0 0
0 0 0 0 0 0 0 0 0 0 0 0 0 0 0 0 0 0 0 0 1 0 0 0 0 0 0 1 4 2 1 2 0 8 2 0 6 15 0 0 0 1 1
0 0 0 0 0 0 0 0 0 0 0 0 0 0 0 0 0 0 0 0 0 0 1 0 0 1 2 0 1 1 2 1 0 6 2 15 16 0 0 0 0 6 0
0 0 0 0 0 0 0 0 0 0 0 0 0 0 0 0 0 0 0 0 2 0 1 2 2 1 0 0 0 1 1 2 2 4 9 0 2 0 0 0 4 0 1
0 0 0 0 0 0 0 0 0 0 0 0 0 0 0 0 3 1 0 1 0 0 0 0 0 1 1 0 0 1 1 1 1 0 2 1 1 0 0 0 1 1 2
0 0 0 0 0 0 0 0 0 0 0 0 0 0 0 0 0 0 0 0 0 0 0 0 0 0 1 1 1 2 1 0 0 1 1 0 0 1 0 0 0 1 4
0 0 0 0 0 0 0 0 0 0 0 0 0 0 0 0 0 0 0 0 0 0 0 0 2 0 0 0 0 1 0 1 1 1 0 1 1 0 0 0 0 1 5
0 0 0 0 0 0 0 0 0 0 0 0 0 0 0 0 0 0 0 0 0 0 0 0 0 0 0 0 0 0 1 1 1 2 2 0 4 2 0 0 0 2 4
CIN
-15 -16 -5 -20 -12 -26 -14 -13 -10 -14 -14 -10 -2 -1 -3 -13 -26 -33 -39 -44 -84 -78 -48 -49 -38 -43 -59 -70 -61 -48 -51 -137 -242 -358 -34 0 0 0 0 0 0 0 0
-8 -11 -12 -10 -6 -6 -12 -8 -3 -10 -18 -8 -24 -29 -54 -75 -111 -141 -154 -122 -193 -142 -89 -58 -74 -42 -31 -20 -51 -42 -38 -14 -12 -64 -211 -1 -1 -1 0 0 0 0 0
-17 -9 -18 -17 -11 -10 -14 -5 -9 -5 -30 -21 -74 -138 -87 -6 -5 -14 0 0 0 0 -20 -304 -136 -103 -138 -321 -37 -41 -326 -279 -188 -87 -10 -56 -191 0 -1 0 0 0 0
-13 -9 -17 -15 -7 -6 -11 -31 0 0 0 0 0 0 0 0 0 0 0 0 0 0 0 0 -21 -47 -41 -17 -6 -4 -1 -2 -5 -5 -27 -171 -6 -65 -53 0 0 0 0
-5 -14 -16 -16 -55 -99 0 0 0 0 0 0 0 0 0 0 0 0 0 0 0 0 0 0 0 0 0 0 0 0 0 0 0 -2 -5 0 0 0 0 -58 -35 0 0
-11 -16 -44 0 0 0 0 0 0 0 0 0 0 0 0 0 0 0 0 0 0 0 0 0 0 0 0 0 0 0 0 0 -4 0 0 0 0 0 0 0 -1 0 0
0 0 0 0 0 0 0 0 0 0 0 0 0 0 0 0 0 0 0 0 0 0 0 0 0 0 0 0 0 0 0 0 0 0 0 0 0 0 0 0 0 0 0
0 0 0 0 0 0 0 0 0 0 0 0 0 0 0 0 0 0 0 0 0 0 0 0 0 0 0 0 0 0 -3 -7 0 0 0 0 0 0 0 0 -1 -1 0
0 0 0 0 0 0 0 0 0 0 0 0 0 0 0 0 0 0 0 0 0 0 0 0 0 0 0 0 0 0 -15 0 0 0 0 0 0 0 0 0 -1 -1 -18
0 0 0 0 0 0 0 0 0 0 0 0 0 0 0 0 0 0 0 0 0 0 0 0 0 0 0 0 0 -11 0 0 0 0 0 0 0 0 0 0 0 -1 0
0 0 0 0 0 0 0 0 0 0 0 0 0 0 0 0 0 0 0 0 0 0 0 0 0 0 0 0 -1 -9 0 0 0 0 0 0 0 0 0 0 0 0 0
0 0 0 0 0 0 0 0 0 0 0 0 0 0 0 0 0 0 0 0 0 0 0 0 -1 0 0 -6 0 -2 -2 0 0 0 0 0 0 0 0 0 0 0 0
0 0 0 0 0 0 0 0 0 0 0 0 0 0 0 0 0 0 0 0 0 0 0 0 0 0 -1 0 0 -5 -10 0 0 0 0 0 0 0 0 0 0 0 0
0 0 0 0 0 0 0 0 0 0 0 0 0 0 0 0 0 0 0 0 0 0 0 0 0 0 0 0 -4 -7 -13 -15 -5 -16 -3 0 0 0 0 0 0 0 0
0 0 0 0 0 0 0 0 0 0 0 0 0 0 0 0 0 0 0 0 -2 -1 0 0 0 0 0 -3 -8 -5 -22 -7 -9 -14 -15 -3 -24 0 0 0 0 0 0
0 0 0 0 0 0 0 0 0 0 0 0 0 0 0 0 0 0 0 -2 0 -1 0 0 0 0 0 0 0 0 0 0 0 0 -13 -12 -23 0 0 0 0 0 0
0 0 0 0 0 0 0 0 0 0 0 0 0 0 0 0 0 0 0 0 -2 -9 -9 0 0 0 0 0 0 0 0 0 0 -1 -7 -18 -7 0 0 0 0 0 0
0 0 0 0 0 0 0 0 0 0 0 0 0 0 0 0 0 0 0 -1 0 0 0 0 0 0 -2 0 0 0 0 0 0 0 -1 -16 -20 0 0 0 0 -3 0
0 0 0 0 0 0 0 0 0 0 0 0 0 0 0 0 0 0 0 0 0 0 0 0 0 -1 0 0 -1 -1 -1 -1 0 0 0 0 -22 -2 0 -2 -5 0 0
0 0 0 0 0 0 0 0 0 0 0 0 0 0 0 0 0 0 0 0 -1 0 -1 0 0 -1 0 -1 -1 -1 -1 -1 -1 0 0 -13 -7 -2 0 -10 0 -3 -10
0 0 0 0 0 0 0 0 0 0 0 0 0 0 0 0 0 0 -1 -2 0 -1 -1 0 0 0 0 0 0 -1 0 -1 0 0 -2 -3 -2 -5 0 0 0 -1 0
0 0 0 0 0 0 0 0 0 0 0 0 0 0 0 0 0 -1 -1 -1 -2 -1 0 0 0 0 0 0 0 0 0 0 0 0 0 0 -2 0 0 0 0 0 0
0 0 0 0 0 0 0 0 0 0 0 0 0 0 0 0 -2 -1 -1 -2 0 -2 -3 -1 0 0 0 0 0 0 0 0 0 0 0 0 0 -1 0 0 0 0 0
0 0 0 0 0 0 0 0 0 0 0 0 0 0 0 0 0 -1 0 0 0 -8 0 0 0 0 0 0 0 0 0 0 0 0 0 0 0 0 0 0 0 0 0
0 0 0 0 0 0 0 0 0 0 0 0 0 0 0 0 0 -1 0 0 0 0 0 -5 -1 0 0 0 0 0 0 0 0 0 0 -1 0 -2 0 0 0 0 0
0 0 0 0 0 0 0 0 0 0 0 0 0 0 0 0 0 0 0 0 0 0 -2 0 0 0 0 0 -1 0 0 0 0 0 -4 -1 0 0 -2 0 0 0 0
Wind_Speed
7 9 12 8 12 11 13 15 16 18 20 20 19 20 22 23 25 26 26 25 23 21 21 22 24 24 24 24 24 25 24 25 25 27 29 29 29 28 28 27 26 25 24
12 11 12 14 14 15 15 16 18 19 19 16 18 17 18 18 19 20 20 22 23 22 20 21 24 25 27 30 32 34 35 36 32 31 31 32 33 32 31 30 29 28 28
10 9 12 12 13 16 16 15 16 14 14 14 15 17 16 22 23 25 28 29 28 29 24 24 29 29 29 32 33 34 36 39 40 41 37 35 34 34 34 34 32 30 29
8 9 10 12 11 12 11 14 17 19 22 24 24 25 27 30 29 29 29 30 31 31 30 29 26 28 29 31 33 35 36 38 40 41 41 44 45 39 38 37 35 34 34
7 8 9 10 11 12 14 17 19 21 23 25 25 27 31 28 29 30 30 28 30 33 33 30 29 29 31 34 36 38 39 39 41 42 42 42 42 41 42 45 42 36 36
5 6 8 10 12 13 15 18 20 22 23 25 27 29 30 31 29 28 30 32 33 34 33 33 34 34 36 38 40 36 40 43 39 43 44 44 44 46 47 48 48 41 41
5 7 7 9 12 13 15 18 21 24 25 26 30 32 30 28 28 32 33 34 34 33 34 34 34 34 35 37 35 39 44 39 40 41 42 43 46 47 49 50 51 48 43
6 8 8 9 13 11 14 18 20 24 25 28 30 34 33 33 31 35 35 36 31 32 33 34 34 36 35 35 38 38 33 36 38 40 42 45 48 50 52 52 51 53 53
6 6 8 9 11 14 14 18 21 24 27 28 29 31 34 34 40 29 35 32 35 35 34 33 34 33 36 34 37 33 31 33 35 39 43 47 50 52 53 54 55 53 53
5 6 7 9 11 13 16 19 22 24 27 30 31 31 32 34 39 40 32 33 34 36 37 37 37 35 34 36 36 31 31 35 37 42 45 45 48 50 52 54 54 55 53
3 5 6 8 10 13 16 19 22 25 26 29 31 33 33 33 33 38 44 39 36 35 36 35 37 38 35 36 34 33 34 35 38 41 42 40 42 46 50 52 53 53 54
4 4 6 8 11 15 17 20 23 25 27 29 29 30 32 34 36 36 40 40 39 38 35 37 36 37 35 34 35 32 32 35 39 40 39 36 37 41 45 49 50 50 50
5 5 7 9 12 15 19 21 24 26 27 28 29 31 30 31 32 34 36 39 40 39 38 35 36 33 33 34 35 33 34 36 37 38 37 36 37 37 39 45 48 48 49
6 5 8 10 14 17 20 22 24 26 27 28 29 29 30 30 30 32 35 38 44 43 41 40 33 32 33 33 34 39 36 35 35 34 40 40 38 34 35 39 47 48 48
5 7 9 11 14 17 20 22 25 27 27 28 28 29 29 30 31 32 33 35 39 47 47 42 41 37 36 37 39 41 41 40 40 42 42 39 34 33 35 39 44 48 48
7 8 10 12 14 17 20 23 25 26 28 28 28 29 30 29 31 32 33 34 34 39 46 42 40 39 39 42 43 45 46 49 47 46 41 35 33 31 36 39 40 47 47
8 8 9 12 15 18 20 23 25 26 26 27 27 29 30 31 32 33 34 33 34 35 42 45 38 38 45 46 47 48 48 48 47 47 46 37 33 35 37 40 38 44 45
8 9 11 13 15 18 20 23 24 26 27 28 28 30 31 32 34 34 35 36 37 36 41 45 43 42 42 45 45 46 46 45 46 45 44 43 35 36 38 39 40 43 45
9 10 12 14 16 18 20 22 23 24 26 27 29 32 33 34 35 35 36 38 38 37 38 42 44 42 44 45 47 45 46 46 42 43 45 42 36 36 38 39 41 45 43
9 10 12 13 15 17 20 21 23 24 26 28 30 32 33 33 35 37 37 37 38 41 40 41 41 42 42 41 41 42 43 43 45 42 42 41 39 40 38 41 46 43 38
9 10 11 13 15 18 20 20 22 25 27 29 30 30 31 32 32 33 36 38 38 40 41 42 41 40 39 39 38 39 40 40 40 38 38 34 36 38 41 43 42 39 40
9 10 11 13 16 19 18 20 23 25 27 28 30 30 30 31 33 36 35 35 34 38 39 39 38 36 34 34 36 36 35 35 36 30 32 42 35 39 39 40 39 40 39
8 9 12 15 18 16 18 20 23 24 24 26 28 29 31 32 34 35 35 34 34 34 32 32 31 30 32 33 33 29 28 27 24 19 14 33 36 36 36 37 36 37 36
8 11 14 16 15 15 18 19 21 22 25 27 29 31 33 35 36 36 35 36 36 34 32 28 26 27 28 28 23 22 22 22 18 15 8 31 32 33 34 34 32 32 33
11 14 13 14 14 14 16 18 21 23 25 28 29 31 33 35 34 35 36 38 36 34 30 27 24 24 22 19 18 20 23 24 18 14 22 24 29 32 32 28 29 30 29
13 11 12 11 12 12 14 18 20 23 26 29 30 31 32 34 35 35 36 35 35 35 34 31 27 28 24 21 21 22 23 22 20 31 25 26 30 29 27 23 26 25 22
Wind_Direction
342 346 341 360 345 358 353 349 348 341 340 344 350 348 347 348 343 342 341 342 341 336 333 333 332 330 328 326 322 319 315 313 311 310 308 307 305 303 301 297 294 292 292
333 333 333 333 335 335 343 343 342 342 344 351 352 355 355 355 352 350 346 342 341 336 329 328 329 328 326 323 320 317 313 311 308 305 304 303 301 299 296 295 291 289 286
329 334 331 334 336 338 340 346 350 359 1 359 358 356 357 352 349 345 342 339 339 339 340 335 331 330 330 327 325 322 318 313 309 307 303 299 296 294 293 291 288 284 283
331 334 336 337 345 351 0 354 348 343 341 342 345 346 345 341 340 341 341 341 341 342 341 340 341 338 334 329 327 325 322 319 316 313 310 307 300 291 288 285 281 280 278
338 343 347 348 349 352 348 343 342 342 342 340 340 342 339 342 341 340 339 342 342 340 339 341 338 338 338 336 332 327 323 321 318 315 314 314 313 316 308 290 276 275 273
348 357 352 345 342 346 347 343 341 341 341 340 339 339 341 340 342 342 344 342 339 338 339 339 338 335 330 329 328 329 324 321 322 319 316 313 312 307 305 302 310 281 271
351 346 348 345 344 346 344 344 342 340 339 340 337 337 341 344 346 344 343 341 340 341 338 338 337 336 334 330 330 327 324 325 324 323 321 318 312 307 302 299 293 296 298
349 343 353 353 345 352 348 346 345 340 340 342 339 337 338 339 339 339 340 338 342 343 340 336 335 332 332 332 328 327 328 329 328 326 323 316 310 306 300 295 293 288 285
339 347 347 346 341 346 347 343 342 340 338 341 345 342 338 336 334 341 340 342 339 339 339 339 335 334 332 334 331 329 332 332 330 327 322 317 311 306 300 296 291 289 287
333 345 343 343 341 344 344 343 345 342 340 337 340 341 339 337 333 332 340 340 339 338 336 336 334 334 334 333 331 334 334 331 330 328 324 319 313 308 304 301 296 290 287
337 343 348 351 347 349 345 342 341 340 340 338 338 337 337 337 337 333 330 335 336 337 336 335 334 331 333 332 331 332 331 330 329 328 326 325 322 317 310 304 302 296 290
308 326 340 342 343 343 342 340 339 338 338 337 337 339 337 337 336 335 332 333 333 336 337 335 334 334 334 334 331 330 329 326 326 325 326 327 326 325 321 310 305 301 296
288 307 323 332 335 337 337 337 336 336 337 337 339 338 339 338 337 335 334 333 332 334 335 336 336 337 337 336 331 328 325 325 325 324 324 324 325 327 326 319 308 303 298
280 301 319 326 330 332 334 334 335 336 338 339 339 340 340 338 339 338 336 334 331 331 333 334 340 339 337 333 330 327 325 325 323 322 320 320 322 326 327 325 310 304 298
291 304 315 323 328 331 333 334 335 336 338 339 340 339 340 339 339 338 338 336 333 330 331 334 335 336 336 334 331 328 325 324 321 318 319 317 320 323 324 323 315 304 298
287 300 313 322 327 330 332 335 336 337 338 339 340 340 339 340 339 339 339 338 336 331 327 331 332 332 332 330 327 325 323 320 319 317 316 315 316 320 321 319 321 304 297
288 298 312 320 325 328 333 335 337 338 340 340 341 340 340 340 340 340 339 338 336 337 329 328 330 332 328 327 325 323 322 321 319 317 315 314 313 317 317 316 320 307 294
286 301 313 319 324 330 334 337 337 339 339 340 341 341 340 340 339 341 342 341 339 338 332 328 328 329 328 326 324 323 323 323 322 318 312 311 313 314 313 313 316 307 291
286 302 312 318 325 331 334 337 339 340 341 342 341 341 340 341 341 343 341 339 338 337 336 331 328 330 330 329 327 327 325 324 325 322 317 311 312 311 311 310 309 303 290
287 301 312 320 327 331 335 338 340 341 342 341 341 342 342 343 343 341 341 342 340 336 335 334 332 331 333 334 334 333 331 331 328 326 321 315 306 303 304 302 300 298 298
287 302 314 322 328 332 334 338 340 340 340 341 343 344 346 345 345 345 345 342 341 339 338 337 335 335 336 338 338 337 334 334 334 333 327 323 309 298 297 299 300 302 291
289 303 313 321 325 332 336 338 339 339 341 343 344 346 347 346 347 346 347 345 345 341 338 338 337 337 339 340 340 340 340 339 340 345 337 303 305 292 291 299 297 289 285
287 302 315 320 325 332 337 339 340 342 344 345 346 347 346 348 348 347 347 347 346 343 341 339 339 340 340 341 340 340 341 340 335 333 322 276 295 285 294 297 289 286 274
283 304 314 319 326 333 337 341 344 345 346 348 348 347 347 348 348 348 347 347 347 347 347 346 344 342 341 341 338 334 332 334 333 333 321 276 293 287 297 295 289 283 277
296 307 313 319 323 332 341 345 344 347 348 349 350 349 349 350 350 350 350 347 348 349 351 350 347 345 342 338 339 342 347 347 341 345 351 263 313 293 292 289 298 294 284
300 306 315 322 332 339 346 347 349 349 349 349 350 351 352 351 351 352 350 351 350 350 351 352 353 354 353 353 352 351 348 344 348 338 339 335 305 298 294 293 303 302 291